Time,TemperatureF,DewpointF,PressureIn,WindDirection,WindDirectionDegrees,WindSpeedMPH,WindSpeedGustMPH,Humidity,HourlyPrecipIn,Conditions,Clouds,dailyrainin,SoftwareType,DateUTC
2013-11-07 00:03:00,38.2,25.1,30.21,NNW,328,0.0,1.0,59,0.00,,,0.00,Wunderground v.1.13,2013-11-07 06:03:00,
2013-11-07 00:13:00,38.1,25.4,30.22,NNW,328,0.0,0.0,60,0.00,,,0.00,Wunderground v.1.13,2013-11-07 06:13:00,
2013-11-07 00:18:00,38.2,25.5,30.22,NW,325,0.0,0.0,60,0.00,,,0.00,Wunderground v.1.13,2013-11-07 06:18:00,
2013-11-07 00:23:00,38.0,25.7,30.22,NW,325,0.0,0.0,61,0.00,,,0.00,Wunderground v.1.13,2013-11-07 06:23:00,
2013-11-07 00:33:00,37.9,25.6,30.22,NW,325,0.0,0.0,61,0.00,,,0.00,Wunderground v.1.13,2013-11-07 06:33:00,
2013-11-07 00:43:00,37.8,25.5,30.23,NW,325,0.0,0.0,61,0.00,,,0.00,Wunderground v.1.13,2013-11-07 06:43:00,
2013-11-07 00:53:00,37.7,25.8,30.23,NW,325,0.0,0.0,62,0.00,,,0.00,Wunderground v.1.13,2013-11-07 06:53:00,
2013-11-07 01:03:00,37.4,25.6,30.23,NW,325,0.0,0.0,62,0.00,,,0.00,Wunderground v.1.13,2013-11-07 07:03:00,
2013-11-07 01:13:00,37.1,25.3,30.23,NW,325,0.0,0.0,62,0.00,,,0.00,Wunderground v.1.13,2013-11-07 07:13:00,
2013-11-07 01:18:00,37.0,25.2,30.23,NW,325,0.0,0.0,62,0.00,,,0.00,Wunderground v.1.13,2013-11-07 07:18:00,
2013-11-07 01:23:00,36.9,24.7,30.23,NW,325,0.0,0.0,61,0.00,,,0.00,Wunderground v.1.13,2013-11-07 07:23:00,
2013-11-07 01:38:00,36.8,24.6,30.24,N/A,-737280,0.0,0.0,61,0.00,,,0.00,Wunderground v.1.13,2013-11-07 07:38:00,
2013-11-07 01:43:00,36.6,24.4,30.24,NW,325,0.0,0.0,61,0.00,,,0.00,Wunderground v.1.13,2013-11-07 07:43:00,
2013-11-07 01:53:00,36.4,23.8,30.24,NW,325,0.0,0.0,60,0.00,,,0.00,Wunderground v.1.13,2013-11-07 07:53:00,
2013-11-07 01:58:00,36.3,23.7,30.25,NW,325,0.0,0.0,60,0.00,,,0.00,Wunderground v.1.13,2013-11-07 07:58:00,
2013-11-07 02:03:00,36.1,23.5,30.25,NW,325,0.0,0.0,60,0.00,,,0.00,Wunderground v.1.13,2013-11-07 08:03:00,
2013-11-07 02:13:00,35.9,23.0,30.25,NW,325,0.0,0.0,59,0.00,,,0.00,Wunderground v.1.13,2013-11-07 08:13:00,
2013-11-07 02:23:00,35.8,22.5,30.26,NW,325,0.0,0.0,58,0.00,,,0.00,Wunderground v.1.13,2013-11-07 08:23:00,
2013-11-07 02:28:00,35.8,22.5,30.26,NW,325,0.0,0.0,58,0.00,,,0.00,Wunderground v.1.13,2013-11-07 08:28:00,
2013-11-07 02:38:00,35.7,21.9,30.26,NW,325,0.0,0.0,57,0.00,,,0.00,Wunderground v.1.13,2013-11-07 08:38:00,
2013-11-07 02:43:00,35.6,21.9,30.25,NW,325,0.0,0.0,57,0.00,,,0.00,Wunderground v.1.13,2013-11-07 08:43:00,
2013-11-07 02:48:00,35.5,22.2,30.25,NW,325,0.0,0.0,58,0.00,,,0.00,Wunderground v.1.13,2013-11-07 08:48:00,
2013-11-07 02:58:00,35.3,22.0,30.25,NW,325,0.0,0.0,58,0.00,,,0.00,Wunderground v.1.13,2013-11-07 08:58:00,
2013-11-07 03:03:00,35.3,21.6,30.26,NW,325,0.0,0.0,57,0.00,,,0.00,Wunderground v.1.13,2013-11-07 09:03:00,
2013-11-07 03:08:00,35.2,21.9,30.26,NW,325,0.0,0.0,58,0.00,,,0.00,Wunderground v.1.13,2013-11-07 09:08:00,
2013-11-07 03:13:00,35.1,21.8,30.26,NW,325,0.0,0.0,58,0.00,,,0.00,Wunderground v.1.13,2013-11-07 09:13:00,
2013-11-07 03:23:00,34.9,21.6,30.26,NW,325,0.0,0.0,58,0.00,,,0.00,Wunderground v.1.13,2013-11-07 09:23:00,
2013-11-07 03:28:00,34.9,21.6,30.26,NW,325,0.0,0.0,58,0.00,,,0.00,Wunderground v.1.13,2013-11-07 09:28:00,
2013-11-07 03:33:00,34.8,21.5,30.26,NW,325,0.0,0.0,58,0.00,,,0.00,Wunderground v.1.13,2013-11-07 09:33:00,
2013-11-07 03:43:00,34.7,21.4,30.27,NW,325,0.0,0.0,58,0.00,,,0.00,Wunderground v.1.13,2013-11-07 09:43:00,
2013-11-07 03:48:00,34.7,21.4,30.27,NW,325,0.0,0.0,58,0.00,,,0.00,Wunderground v.1.13,2013-11-07 09:48:00,
2013-11-07 03:58:00,34.4,21.5,30.27,NW,325,0.0,0.0,59,0.00,,,0.00,Wunderground v.1.13,2013-11-07 09:58:00,
2013-11-07 04:03:00,34.4,21.5,30.27,NW,325,0.0,0.0,59,0.00,,,0.00,Wunderground v.1.13,2013-11-07 10:03:00,
2013-11-07 04:13:00,34.4,21.5,30.27,NW,325,0.0,0.0,59,0.00,,,0.00,Wunderground v.1.13,2013-11-07 10:13:00,
2013-11-07 04:23:00,34.4,21.9,30.27,NW,325,0.0,0.0,60,0.00,,,0.00,Wunderground v.1.13,2013-11-07 10:23:00,
2013-11-07 04:33:00,34.4,21.9,30.28,NW,325,0.0,0.0,60,0.00,,,0.00,Wunderground v.1.13,2013-11-07 10:33:00,
2013-11-07 04:38:00,34.4,21.9,30.28,NW,325,0.0,0.0,60,0.00,,,0.00,Wunderground v.1.13,2013-11-07 10:38:00,
2013-11-07 04:43:00,34.4,22.3,30.28,NW,325,0.0,0.0,61,0.00,,,0.00,Wunderground v.1.13,2013-11-07 10:43:00,
2013-11-07 04:53:00,34.4,22.3,30.29,NW,325,0.0,0.0,61,0.00,,,0.00,Wunderground v.1.13,2013-11-07 10:53:00,
2013-11-07 05:03:00,34.2,22.5,30.30,NW,325,0.0,0.0,62,0.00,,,0.00,Wunderground v.1.13,2013-11-07 11:03:00,
2013-11-07 05:08:00,34.1,22.0,30.30,NW,325,0.0,0.0,61,0.00,,,0.00,Wunderground v.1.13,2013-11-07 11:08:00,
2013-11-07 05:13:00,34.0,22.0,30.30,NW,325,0.0,0.0,61,0.00,,,0.00,Wunderground v.1.13,2013-11-07 11:13:00,
2013-11-07 05:23:00,33.8,21.8,30.30,NW,325,0.0,0.0,61,0.00,,,0.00,Wunderground v.1.13,2013-11-07 11:23:00,
2013-11-07 05:28:00,33.7,21.7,30.31,NW,325,0.0,0.0,61,0.00,,,0.00,Wunderground v.1.13,2013-11-07 11:28:00,
2013-11-07 05:33:00,33.5,21.5,30.31,NW,325,0.0,0.0,61,0.00,,,0.00,Wunderground v.1.13,2013-11-07 11:33:00,
2013-11-07 05:38:00,33.3,21.3,30.31,NW,325,0.0,0.0,61,0.00,,,0.00,Wunderground v.1.13,2013-11-07 11:38:00,
2013-11-07 05:43:00,33.2,20.8,30.31,NW,325,0.0,0.0,60,0.00,,,0.00,Wunderground v.1.13,2013-11-07 11:43:00,
2013-11-07 05:48:00,33.1,20.7,30.31,NW,325,0.0,0.0,60,0.00,,,0.00,Wunderground v.1.13,2013-11-07 11:48:00,
2013-11-07 05:53:00,33.1,20.3,30.32,NW,325,0.0,0.0,59,0.00,,,0.00,Wunderground v.1.13,2013-11-07 11:53:00,
2013-11-07 06:03:00,32.9,20.1,30.31,NW,325,0.0,0.0,59,0.00,,,0.00,Wunderground v.1.13,2013-11-07 12:03:00,
2013-11-07 06:13:00,32.7,19.9,30.32,NW,325,0.0,0.0,59,0.00,,,0.00,Wunderground v.1.13,2013-11-07 12:13:00,
2013-11-07 06:23:00,32.6,19.4,30.32,NW,325,0.0,0.0,58,0.00,,,0.00,Wunderground v.1.13,2013-11-07 12:23:00,
2013-11-07 06:33:00,32.3,19.2,30.32,NW,325,0.0,0.0,58,0.00,,,0.00,Wunderground v.1.13,2013-11-07 12:33:00,
2013-11-07 06:38:00,32.0,18.9,30.33,NW,325,0.0,0.0,58,0.00,,,0.00,Wunderground v.1.13,2013-11-07 12:38:00,
2013-11-07 06:43:00,31.9,18.8,30.33,NW,325,0.0,0.0,58,0.00,,,0.00,Wunderground v.1.13,2013-11-07 12:43:00,
2013-11-07 06:53:00,32.2,18.7,30.34,NW,325,0.0,0.0,57,0.00,,,0.00,Wunderground v.1.13,2013-11-07 12:53:00,
2013-11-07 06:58:00,32.7,18.7,30.34,NW,325,0.0,0.0,56,0.00,,,0.00,Wunderground v.1.13,2013-11-07 12:58:00,
2013-11-07 07:03:00,33.0,18.6,30.34,NW,325,0.0,0.0,55,0.00,,,0.00,Wunderground v.1.13,2013-11-07 13:03:00,
2013-11-07 07:13:00,34.2,19.3,30.34,NW,325,0.0,0.0,54,0.00,,,0.00,Wunderground v.1.13,2013-11-07 13:13:00,
2013-11-07 07:23:00,35.0,19.1,30.34,NW,325,0.0,0.0,52,0.00,,,0.00,Wunderground v.1.13,2013-11-07 13:23:00,
2013-11-07 07:33:00,34.7,19.7,30.35,WNW,287,0.0,0.0,54,0.00,,,0.00,Wunderground v.1.13,2013-11-07 13:33:00,
2013-11-07 07:38:00,34.8,19.8,30.36,WNW,287,0.0,0.0,54,0.00,,,0.00,Wunderground v.1.13,2013-11-07 13:38:00,
2013-11-07 07:48:00,35.4,20.4,30.36,WNW,284,0.0,0.0,54,0.00,,,0.00,Wunderground v.1.13,2013-11-07 13:48:00,
2013-11-07 07:53:00,35.8,20.3,30.36,East,82,0.0,0.0,53,0.00,,,0.00,Wunderground v.1.13,2013-11-07 13:53:00,
2013-11-07 08:03:00,36.2,21.6,30.36,NNW,327,0.0,0.0,55,0.00,,,0.00,Wunderground v.1.13,2013-11-07 14:03:00,
2013-11-07 08:08:00,36.5,23.5,30.36,NNW,327,0.0,0.0,59,0.00,,,0.00,Wunderground v.1.13,2013-11-07 14:08:00,
2013-11-07 08:13:00,36.8,23.0,30.36,NNW,327,0.0,0.0,57,0.00,,,0.00,Wunderground v.1.13,2013-11-07 14:13:00,
2013-11-07 08:18:00,37.2,23.8,30.36,WNW,296,1.0,1.0,58,0.00,,,0.00,Wunderground v.1.13,2013-11-07 14:18:00,
2013-11-07 08:23:00,37.8,24.7,30.36,NW,313,1.0,1.0,59,0.00,,,0.00,Wunderground v.1.13,2013-11-07 14:23:00,
2013-11-07 08:33:00,38.7,26.8,30.37,NW,318,0.0,0.0,62,0.00,,,0.00,Wunderground v.1.13,2013-11-07 14:33:00,
2013-11-07 08:43:00,39.5,29.4,30.37,NW,316,0.0,0.0,67,0.00,,,0.00,Wunderground v.1.13,2013-11-07 14:43:00,
2013-11-07 08:48:00,40.1,30.0,30.37,NW,315,0.0,0.0,67,0.00,,,0.00,Wunderground v.1.13,2013-11-07 14:48:00,
2013-11-07 08:53:00,40.5,31.1,30.37,NW,315,0.0,0.0,69,0.00,,,0.00,Wunderground v.1.13,2013-11-07 14:53:00,
2013-11-07 08:58:00,40.9,31.5,30.37,NW,315,0.0,0.0,69,0.00,,,0.00,Wunderground v.1.13,2013-11-07 14:58:00,
2013-11-07 09:03:00,41.1,32.1,30.37,West,261,1.0,3.0,70,0.00,,,0.00,Wunderground v.1.13,2013-11-07 15:03:00,
2013-11-07 09:13:00,42.0,32.9,30.37,West,271,2.0,2.0,70,0.00,,,0.01,Wunderground v.1.13,2013-11-07 15:13:00,
2013-11-07 09:23:00,42.5,33.8,30.37,West,261,2.0,2.0,71,0.00,,,0.01,Wunderground v.1.13,2013-11-07 15:23:00,
2013-11-07 09:33:00,42.8,34.0,30.36,West,269,1.0,4.0,71,0.00,,,0.01,Wunderground v.1.13,2013-11-07 15:33:00,
2013-11-07 09:38:00,43.1,34.7,30.36,WNW,286,1.0,1.0,72,0.00,,,0.01,Wunderground v.1.13,2013-11-07 15:38:00,
2013-11-07 09:43:00,43.3,34.5,30.36,WNW,300,1.0,1.0,71,0.00,,,0.01,Wunderground v.1.13,2013-11-07 15:43:00,
2013-11-07 09:53:00,43.9,35.1,30.36,WNW,294,0.0,2.0,71,0.00,,,0.01,Wunderground v.1.13,2013-11-07 15:53:00,
2013-11-07 09:58:00,44.5,35.3,30.36,NW,321,0.0,2.0,70,0.00,,,0.01,Wunderground v.1.13,2013-11-07 15:58:00,
2013-11-07 10:08:00,45.2,35.6,30.35,NNW,338,1.0,1.0,69,0.00,,,0.01,Wunderground v.1.13,2013-11-07 16:08:00,
2013-11-07 10:13:00,45.4,35.1,30.36,WNW,294,1.0,3.0,67,0.00,,,0.01,Wunderground v.1.13,2013-11-07 16:13:00,
2013-11-07 10:18:00,45.4,35.1,30.35,WNW,298,1.0,1.0,67,0.00,,,0.01,Wunderground v.1.13,2013-11-07 16:18:00,
2013-11-07 10:23:00,45.6,34.9,30.36,WNW,300,1.0,1.0,66,0.00,,,0.01,Wunderground v.1.13,2013-11-07 16:23:00,
2013-11-07 10:33:00,46.8,35.3,30.36,NW,313,0.0,1.0,64,0.00,,,0.01,Wunderground v.1.13,2013-11-07 16:33:00,
2013-11-07 10:43:00,47.0,34.6,30.36,West,263,1.0,1.0,62,0.00,,,0.01,Wunderground v.1.13,2013-11-07 16:43:00,
2013-11-07 10:48:00,46.8,34.5,30.36,SW,215,0.0,0.0,62,0.00,,,0.01,Wunderground v.1.13,2013-11-07 16:48:00,
2013-11-07 10:53:00,47.0,34.6,30.35,WSW,240,0.0,0.0,62,0.00,,,0.01,Wunderground v.1.13,2013-11-07 16:53:00,
2013-11-07 11:03:00,47.9,34.3,30.35,North,355,1.0,1.0,59,0.00,,,0.01,Wunderground v.1.13,2013-11-07 17:03:00,
2013-11-07 11:13:00,48.2,35.0,30.35,West,276,2.0,2.0,60,0.00,,,0.01,Wunderground v.1.13,2013-11-07 17:13:00,
2013-11-07 11:18:00,48.1,33.6,30.35,West,261,1.0,4.0,57,0.00,,,0.01,Wunderground v.1.13,2013-11-07 17:18:00,
2013-11-07 11:28:00,48.5,35.2,30.35,WSW,257,2.0,5.0,60,0.00,,,0.01,Wunderground v.1.13,2013-11-07 17:28:00,
2013-11-07 11:38:00,48.5,33.5,30.34,WNW,288,2.0,2.0,56,0.00,,,0.01,Wunderground v.1.13,2013-11-07 17:38:00,
2013-11-07 11:48:00,48.5,33.1,30.34,West,278,3.0,3.0,55,0.00,,,0.01,Wunderground v.1.13,2013-11-07 17:48:00,
2013-11-07 11:53:00,49.0,34.4,30.33,WSW,248,2.0,6.0,57,0.00,,,0.01,Wunderground v.1.13,2013-11-07 17:53:00,
2013-11-07 12:03:00,49.5,35.3,30.33,West,279,4.0,4.0,58,0.00,,,0.01,Wunderground v.1.13,2013-11-07 18:03:00,
2013-11-07 12:13:00,49.9,34.8,30.32,NW,315,4.0,7.0,56,0.00,,,0.01,Wunderground v.1.13,2013-11-07 18:13:00,
2013-11-07 12:18:00,49.7,34.6,30.32,West,278,5.0,6.0,56,0.00,,,0.01,Wunderground v.1.13,2013-11-07 18:18:00,
2013-11-07 12:23:00,49.6,34.5,30.32,West,264,4.0,5.0,56,0.00,,,0.01,Wunderground v.1.13,2013-11-07 18:23:00,
2013-11-07 12:38:00,50.1,35.4,30.31,SSW,203,5.0,7.0,57,0.00,,,0.01,Wunderground v.1.13,2013-11-07 18:38:00,
2013-11-07 12:43:00,50.0,34.5,30.31,WNW,286,5.0,5.0,55,0.00,,,0.01,Wunderground v.1.13,2013-11-07 18:43:00,
2013-11-07 12:53:00,50.1,35.4,30.31,West,264,3.0,8.0,57,0.00,,,0.01,Wunderground v.1.13,2013-11-07 18:53:00,
2013-11-07 13:03:00,50.4,36.6,30.30,SSW,208,4.0,7.0,59,0.00,,,0.01,Wunderground v.1.13,2013-11-07 19:03:00,
2013-11-07 13:13:00,50.5,35.4,30.30,SW,234,3.0,4.0,56,0.00,,,0.01,Wunderground v.1.13,2013-11-07 19:13:00,
2013-11-07 13:23:00,50.7,35.6,30.29,WNW,292,4.0,4.0,56,0.00,,,0.01,Wunderground v.1.13,2013-11-07 19:23:00,
2013-11-07 13:28:00,50.6,35.5,30.29,WNW,296,5.0,5.0,56,0.00,,,0.01,Wunderground v.1.13,2013-11-07 19:28:00,
2013-11-07 13:33:00,50.8,35.7,30.29,WSW,242,4.0,7.0,56,0.00,,,0.01,Wunderground v.1.13,2013-11-07 19:33:00,
2013-11-07 13:38:00,51.3,35.7,30.29,WSW,256,5.0,7.0,55,0.00,,,0.01,Wunderground v.1.13,2013-11-07 19:38:00,
2013-11-07 13:48:00,51.2,36.0,30.29,NW,314,5.0,5.0,56,0.00,,,0.01,Wunderground v.1.13,2013-11-07 19:48:00,
2013-11-07 13:53:00,51.7,35.1,30.29,WNW,298,3.0,4.0,53,0.00,,,0.01,Wunderground v.1.13,2013-11-07 19:53:00,
2013-11-07 14:03:00,51.7,35.6,30.28,WSW,253,4.0,7.0,54,0.00,,,0.01,Wunderground v.1.13,2013-11-07 20:03:00,
2013-11-07 14:13:00,51.9,35.3,30.28,NW,310,5.0,6.0,53,0.00,,,0.01,Wunderground v.1.13,2013-11-07 20:13:00,
2013-11-07 14:23:00,52.3,36.1,30.28,West,276,4.0,4.0,54,0.00,,,0.01,Wunderground v.1.13,2013-11-07 20:23:00,
2013-11-07 14:28:00,52.6,35.9,30.27,West,259,3.0,8.0,53,0.00,,,0.01,Wunderground v.1.13,2013-11-07 20:28:00,
2013-11-07 14:33:00,52.7,36.5,30.27,WNW,300,4.0,4.0,54,0.00,,,0.01,Wunderground v.1.13,2013-11-07 20:33:00,
2013-11-07 14:43:00,52.6,35.9,30.27,WSW,258,4.0,4.0,53,0.00,,,0.01,Wunderground v.1.13,2013-11-07 20:43:00,
2013-11-07 14:48:00,52.6,35.9,30.27,WSW,246,4.0,4.0,53,0.00,,,0.01,Wunderground v.1.13,2013-11-07 20:48:00,
2013-11-07 14:53:00,52.8,36.6,30.27,West,263,3.0,5.0,54,0.00,,,0.01,Wunderground v.1.13,2013-11-07 20:53:00,
2013-11-07 15:03:00,53.0,35.8,30.27,West,268,4.0,4.0,52,0.00,,,0.01,Wunderground v.1.13,2013-11-07 21:03:00,
2013-11-07 15:13:00,53.2,36.0,30.26,WSW,254,3.0,3.0,52,0.00,,,0.01,Wunderground v.1.13,2013-11-07 21:13:00,
2013-11-07 15:23:00,53.3,36.1,30.26,WNW,283,3.0,3.0,52,0.00,,,0.01,Wunderground v.1.13,2013-11-07 21:23:00,
2013-11-07 15:33:00,53.0,35.8,30.26,West,268,3.0,3.0,52,0.00,,,0.01,Wunderground v.1.13,2013-11-07 21:33:00,
2013-11-07 15:38:00,53.0,35.8,30.27,West,265,3.0,6.0,52,0.00,,,0.01,Wunderground v.1.13,2013-11-07 21:38:00,
2013-11-07 15:43:00,52.9,36.2,30.26,West,276,3.0,3.0,53,0.00,,,0.01,Wunderground v.1.13,2013-11-07 21:43:00,
2013-11-07 15:53:00,53.1,36.9,30.26,West,264,2.0,3.0,54,0.00,,,0.01,Wunderground v.1.13,2013-11-07 21:53:00,
2013-11-07 16:03:00,52.7,36.5,30.27,West,279,3.0,3.0,54,0.00,,,0.01,Wunderground v.1.13,2013-11-07 22:03:00,
2013-11-07 16:13:00,52.5,36.3,30.26,West,269,1.0,1.0,54,0.00,,,0.01,Wunderground v.1.13,2013-11-07 22:13:00,
2013-11-07 16:18:00,52.3,36.6,30.26,West,267,0.0,0.0,55,0.00,,,0.01,Wunderground v.1.13,2013-11-07 22:18:00,
2013-11-07 16:23:00,52.0,36.3,30.26,West,267,0.0,0.0,55,0.00,,,0.01,Wunderground v.1.13,2013-11-07 22:23:00,
2013-11-07 16:33:00,51.5,35.9,30.26,WSW,241,0.0,0.0,55,0.00,,,0.01,Wunderground v.1.13,2013-11-07 22:33:00,
2013-11-07 16:38:00,51.1,36.4,30.26,WSW,241,0.0,0.0,57,0.00,,,0.01,Wunderground v.1.13,2013-11-07 22:38:00,
2013-11-07 16:48:00,50.4,35.7,30.26,WSW,241,0.0,0.0,57,0.00,,,0.01,Wunderground v.1.13,2013-11-07 22:48:00,
2013-11-07 16:53:00,50.1,35.9,30.27,WSW,241,0.0,0.0,58,0.00,,,0.01,Wunderground v.1.13,2013-11-07 22:53:00,
2013-11-07 17:03:00,49.0,36.9,30.27,WSW,241,0.0,0.0,63,0.00,,,0.01,Wunderground v.1.13,2013-11-07 23:03:00,
2013-11-07 17:08:00,48.1,36.5,30.27,WSW,241,0.0,0.0,64,0.00,,,0.01,Wunderground v.1.13,2013-11-07 23:08:00,
2013-11-07 17:13:00,47.5,35.9,30.27,WSW,241,0.0,0.0,64,0.00,,,0.01,Wunderground v.1.13,2013-11-07 23:13:00,
2013-11-07 17:23:00,46.7,35.6,30.27,WSW,241,0.0,0.0,65,0.00,,,0.01,Wunderground v.1.13,2013-11-07 23:23:00,
2013-11-07 17:28:00,46.3,35.6,30.27,WSW,241,0.0,0.0,66,0.00,,,0.01,Wunderground v.1.13,2013-11-07 23:28:00,
2013-11-07 17:38:00,45.5,35.5,30.27,WSW,241,0.0,0.0,68,0.00,,,0.01,Wunderground v.1.13,2013-11-07 23:38:00,
2013-11-07 17:48:00,44.6,35.4,30.27,WSW,241,0.0,0.0,70,0.00,,,0.01,Wunderground v.1.13,2013-11-07 23:48:00,
2013-11-07 17:58:00,43.1,34.7,30.27,WSW,241,0.0,0.0,72,0.00,,,0.01,Wunderground v.1.13,2013-11-07 23:58:00,
2013-11-07 18:03:00,42.8,34.4,30.28,WSW,241,0.0,0.0,72,0.00,,,0.01,Wunderground v.1.13,2013-11-08 00:03:00,
2013-11-07 18:13:00,42.4,34.4,30.28,WSW,241,0.0,0.0,73,0.00,,,0.01,Wunderground v.1.13,2013-11-08 00:13:00,
2013-11-07 18:18:00,42.3,34.3,30.28,WSW,241,0.0,0.0,73,0.00,,,0.01,Wunderground v.1.13,2013-11-08 00:18:00,
2013-11-07 18:28:00,41.9,33.9,30.28,WSW,241,0.0,0.0,73,0.00,,,0.01,Wunderground v.1.13,2013-11-08 00:28:00,
2013-11-07 18:33:00,41.6,33.6,30.28,WSW,241,0.0,0.0,73,0.00,,,0.01,Wunderground v.1.13,2013-11-08 00:33:00,
2013-11-07 18:43:00,41.3,33.3,30.28,WSW,241,0.0,0.0,73,0.00,,,0.01,Wunderground v.1.13,2013-11-08 00:43:00,
2013-11-07 18:48:00,41.1,33.1,30.28,WSW,241,0.0,0.0,73,0.00,,,0.01,Wunderground v.1.13,2013-11-08 00:48:00,
2013-11-07 18:53:00,40.9,32.9,30.28,WSW,241,0.0,0.0,73,0.00,,,0.01,Wunderground v.1.13,2013-11-08 00:53:00,
2013-11-07 19:03:00,40.4,32.1,30.29,WSW,241,0.0,0.0,72,0.00,,,0.01,Wunderground v.1.13,2013-11-08 01:03:00,
2013-11-07 19:13:00,40.1,31.4,30.29,WSW,241,0.0,0.0,71,0.00,,,0.01,Wunderground v.1.13,2013-11-08 01:13:00,
2013-11-07 19:18:00,39.9,30.9,30.29,WSW,241,0.0,0.0,70,0.00,,,0.01,Wunderground v.1.13,2013-11-08 01:18:00,
2013-11-07 19:28:00,39.4,30.4,30.29,WSW,241,0.0,0.0,70,0.00,,,0.01,Wunderground v.1.13,2013-11-08 01:28:00,
2013-11-07 19:33:00,39.2,30.2,30.29,WSW,241,0.0,0.0,70,0.00,,,0.01,Wunderground v.1.13,2013-11-08 01:33:00,
2013-11-07 19:43:00,38.8,29.8,30.29,WSW,241,0.0,0.0,70,0.00,,,0.01,Wunderground v.1.13,2013-11-08 01:43:00,
2013-11-07 19:48:00,38.6,29.7,30.29,WSW,241,0.0,0.0,70,0.00,,,0.01,Wunderground v.1.13,2013-11-08 01:48:00,
2013-11-07 19:53:00,38.3,29.4,30.29,WSW,241,0.0,0.0,70,0.00,,,0.01,Wunderground v.1.13,2013-11-08 01:53:00,
2013-11-07 20:03:00,38.1,28.5,30.29,WSW,241,0.0,0.0,68,0.00,,,0.01,Wunderground v.1.13,2013-11-08 02:03:00,
2013-11-07 20:13:00,37.9,27.5,30.29,WSW,241,0.0,0.0,66,0.00,,,0.01,Wunderground v.1.13,2013-11-08 02:13:00,
2013-11-07 20:23:00,37.7,27.4,30.29,WSW,241,0.0,0.0,66,0.00,,,0.01,Wunderground v.1.13,2013-11-08 02:23:00,
2013-11-07 20:28:00,37.3,27.0,30.30,WSW,241,0.0,0.0,66,0.00,,,0.01,Wunderground v.1.13,2013-11-08 02:28:00,
2013-11-07 20:38:00,36.9,25.9,30.30,WSW,241,0.0,0.0,64,0.00,,,0.01,Wunderground v.1.13,2013-11-08 02:38:00,
2013-11-07 20:48:00,36.7,25.3,30.30,WSW,241,0.0,0.0,63,0.00,,,0.01,Wunderground v.1.13,2013-11-08 02:48:00,
2013-11-07 20:53:00,36.5,25.1,30.30,WSW,241,0.0,0.0,63,0.00,,,0.01,Wunderground v.1.13,2013-11-08 02:53:00,
2013-11-07 21:03:00,36.2,24.4,30.30,WSW,241,0.0,0.0,62,0.00,,,0.01,Wunderground v.1.13,2013-11-08 03:03:00,
2013-11-07 21:08:00,36.2,24.0,30.30,WSW,241,0.0,0.0,61,0.00,,,0.01,Wunderground v.1.13,2013-11-08 03:08:00,
2013-11-07 21:13:00,36.2,23.6,30.30,WSW,241,0.0,0.0,60,0.00,,,0.01,Wunderground v.1.13,2013-11-08 03:13:00,
2013-11-07 21:18:00,36.1,23.5,30.31,WSW,241,0.0,0.0,60,0.00,,,0.01,Wunderground v.1.13,2013-11-08 03:18:00,
2013-11-07 21:23:00,36.0,23.4,30.30,WSW,241,0.0,0.0,60,0.00,,,0.01,Wunderground v.1.13,2013-11-08 03:23:00,
2013-11-07 21:33:00,35.9,22.5,30.30,WSW,241,0.0,0.0,58,0.00,,,0.01,Wunderground v.1.13,2013-11-08 03:33:00,
2013-11-07 21:43:00,35.9,22.1,30.31,WSW,241,0.0,0.0,57,0.00,,,0.01,Wunderground v.1.13,2013-11-08 03:43:00,
2013-11-07 21:48:00,35.8,21.6,30.31,WSW,241,0.0,0.0,56,0.00,,,0.01,Wunderground v.1.13,2013-11-08 03:48:00,
2013-11-07 21:53:00,35.3,21.6,30.31,WSW,241,0.0,0.0,57,0.00,,,0.01,Wunderground v.1.13,2013-11-08 03:53:00,
2013-11-07 22:03:00,34.5,20.8,30.31,WSW,241,0.0,0.0,57,0.00,,,0.01,Wunderground v.1.13,2013-11-08 04:03:00,
2013-11-07 22:13:00,34.4,20.3,30.30,WSW,241,0.0,0.0,56,0.00,,,0.01,Wunderground v.1.13,2013-11-08 04:13:00,
2013-11-07 22:18:00,34.4,20.3,30.30,WSW,241,0.0,0.0,56,0.00,,,0.01,Wunderground v.1.13,2013-11-08 04:18:00,
2013-11-07 22:23:00,34.5,20.0,30.30,WSW,241,0.0,0.0,55,0.00,,,0.01,Wunderground v.1.13,2013-11-08 04:23:00,
2013-11-07 22:33:00,34.4,19.5,30.31,WSW,241,0.0,0.0,54,0.00,,,0.01,Wunderground v.1.13,2013-11-08 04:33:00,
2013-11-07 22:38:00,34.4,19.5,30.31,WSW,241,0.0,0.0,54,0.00,,,0.01,Wunderground v.1.13,2013-11-08 04:38:00,
2013-11-07 22:43:00,34.4,19.0,30.31,WSW,241,0.0,0.0,53,0.00,,,0.01,Wunderground v.1.13,2013-11-08 04:43:00,
2013-11-07 22:53:00,34.4,18.6,30.31,WSW,241,0.0,0.0,52,0.00,,,0.01,Wunderground v.1.13,2013-11-08 04:53:00,
2013-11-07 22:58:00,34.4,18.6,30.31,WSW,241,0.0,0.0,52,0.00,,,0.01,Wunderground v.1.13,2013-11-08 04:58:00,
2013-11-07 23:03:00,34.1,18.7,30.30,WSW,241,0.0,0.0,53,0.00,,,0.01,Wunderground v.1.13,2013-11-08 05:03:00,
2013-11-07 23:08:00,33.7,18.4,30.31,WSW,241,0.0,0.0,53,0.00,,,0.01,Wunderground v.1.13,2013-11-08 05:08:00,
2013-11-07 23:18:00,33.3,18.0,30.31,WSW,241,0.0,0.0,53,0.00,,,0.01,Wunderground v.1.13,2013-11-08 05:18:00,
2013-11-07 23:23:00,33.3,17.5,30.31,WSW,241,0.0,0.0,52,0.00,,,0.01,Wunderground v.1.13,2013-11-08 05:23:00,
2013-11-07 23:28:00,33.3,17.5,30.31,WSW,241,0.0,0.0,52,0.00,,,0.01,Wunderground v.1.13,2013-11-08 05:28:00,
2013-11-07 23:33:00,33.4,17.6,30.31,WSW,241,0.0,0.0,52,0.00,,,0.01,Wunderground v.1.13,2013-11-08 05:33:00,
2013-11-07 23:38:00,33.5,17.7,30.31,WSW,241,0.0,0.0,52,0.00,,,0.01,Wunderground v.1.13,2013-11-08 05:38:00,
2013-11-07 23:43:00,33.5,17.7,30.30,WSW,241,0.0,0.0,52,0.00,,,0.01,Wunderground v.1.13,2013-11-08 05:43:00,
2013-11-07 23:53:00,33.3,17.1,30.30,WSW,241,0.0,0.0,51,0.00,,,0.01,Wunderground v.1.13,2013-11-08 05:53:00,
2013-11-07 23:58:00,33.2,17.0,30.30,WSW,241,0.0,0.0,51,0.00,,,0.01,Wunderground v.1.13,2013-11-08 05:58:00,